Highgate, VT

10:59 AM EST on November 22, 2019 (GMT -0500)
Franklin County State

Weather History for KFSO - September, 2019

Change the Weather History Date:

Sunday, September 15, 2019

  Actual Average (KPBG) Record (KPBG)
Temperature  
Mean Temperature 62 °F -  
Max Temperature 69 °F 68 °F 88 °F (1958)
Min Temperature 56 °F 49 °F 34 °F (1964)
Degree Days  
Heating Degree Days 2    
Growing Degree Days 12 (Base 50)    
Moisture  
Dew Point 52 °F    
Average Humidity 68    
Maximum Humidity 83    
Minimum Humidity 51    
Precipitation  
Precipitation 0.00 in - - ()
Sea Level Pressure  
Sea Level Pressure 30.09 in    
Wind  
Wind Speed 3 mph (West)    
Max Wind Speed 8 mph    
Max Gust Speed -    
Visibility 10 miles    
Events Rain    
Averages and records for this station are not official NWS values.
T = Trace of Precipitation, MM = Missing Value Source: NWS Daily Summary

Daily Weather History Graph

Daily Weather History Graph

Search for Another Location

Airport or City:

Astronomy

Sep. 15, 2019 Rise Set
Actual Time 6:30 AM EDT 7:03 PM EDT
Civil Twilight 6:01 AM EDT 7:33 PM EDT
Nautical Twilight 5:26 AM EDT 8:07 PM EDT
Astronomical Twilight 4:50 AM EDT 8:43 PM EDT
Moon 8:07 PM EDT (9/15) 7:39 AM EDT (9/15)
Length of Visible Light 13h 31m
Length of Day
12h 32m
Full, 98% of the Moon is Illuminated
Sep 15
Full
Sep 21
Last Quarter
Sep 28
New
Oct 5
First Quarter
Oct 13
Full

Hourly Weather History & Observations

Time (EDT) Temp. Dew Point Humidity Pressure Visibility Wind Dir Wind Speed Gust Speed Precip Events Conditions
12:16 AM 66.6 °F 58.8 °F 76% 30.08 in 10.0 mi SW 6.9 mph - N/A   Overcast
12:35 AM 67.1 °F 57.0 °F 70% 30.08 in 10.0 mi SW 4.6 mph - N/A   Overcast
12:56 AM 66.0 °F 57.4 °F 74% 30.09 in 10.0 mi WSW 3.5 mph - N/A   Mostly Cloudy
1:15 AM 64.8 °F 56.5 °F 74% 30.09 in 10.0 mi WSW 4.6 mph - N/A   Scattered Clouds
1:36 AM 64.2 °F 54.5 °F 71% 30.10 in 10.0 mi WSW 4.6 mph - N/A   Clear
1:55 AM 63.7 °F 53.4 °F 69% 30.09 in 10.0 mi West 4.6 mph - N/A   Clear
2:15 AM 63.1 °F 52.5 °F 68% 30.09 in 10.0 mi West 4.6 mph - N/A   Clear
2:35 AM 62.8 °F 51.6 °F 67% 30.09 in 10.0 mi Calm Calm - N/A   Clear
2:55 AM 62.4 °F 51.1 °F 66% 30.08 in 10.0 mi Calm Calm - N/A   Clear
3:15 AM 62.2 °F 50.9 °F 66% 30.08 in 10.0 mi Calm Calm - N/A   Clear
3:35 AM 62.1 °F 50.4 °F 65% 30.08 in 10.0 mi Calm Calm - N/A   Clear
3:55 AM 61.7 °F 50.4 °F 66% 30.08 in 10.0 mi SW 3.5 mph - N/A   Clear
4:15 AM 61.2 °F 51.1 °F 69% 30.09 in 10.0 mi Calm Calm - N/A   Scattered Clouds
4:35 AM 61.9 °F 51.8 °F 69% 30.09 in 10.0 mi SW 3.5 mph - N/A   Overcast
4:55 AM 61.7 °F 51.8 °F 70% 30.09 in 10.0 mi Calm Calm - N/A   Mostly Cloudy
5:16 AM 61.2 °F 51.8 °F 71% 30.10 in 10.0 mi Calm Calm - N/A   Scattered Clouds
5:36 AM 59.9 °F 52.0 °F 75% 30.10 in 10.0 mi Calm Calm - N/A   Clear
5:55 AM 60.3 °F 51.6 °F 73% 30.10 in 10.0 mi WSW 4.6 mph - N/A   Clear
6:15 AM 60.8 °F 50.4 °F 68% 30.11 in 10.0 mi West 3.5 mph - N/A   Clear
6:36 AM 59.9 °F 50.2 °F 70% 30.11 in 10.0 mi West 5.8 mph - N/A   Clear
6:55 AM 59.9 °F 49.3 °F 68% 30.11 in 10.0 mi West 4.6 mph - N/A   Clear
7:15 AM 59.5 °F 49.6 °F 70% 30.11 in 10.0 mi WSW 4.6 mph - N/A   Clear
7:35 AM 59.9 °F 50.0 °F 70% 30.11 in 10.0 mi Calm Calm - N/A   Clear
7:55 AM 61.2 °F 49.5 °F 65% 30.11 in 10.0 mi Calm Calm - N/A   Clear
8:16 AM 61.7 °F 49.5 °F 64% 30.10 in 10.0 mi WSW 3.5 mph - N/A   Clear
8:35 AM 62.6 °F 49.5 °F 62% 30.11 in 10.0 mi West 5.8 mph - N/A   Clear
8:56 AM 63.5 °F 49.1 °F 59% 30.11 in 10.0 mi West 3.5 mph - N/A   Clear
9:15 AM 63.7 °F 49.1 °F 59% 30.12 in 10.0 mi West 5.8 mph - N/A   Clear
9:36 AM 63.5 °F 48.7 °F 59% 30.11 in 10.0 mi West 4.6 mph - N/A   Clear
9:55 AM 64.4 °F 49.3 °F 58% 30.12 in 10.0 mi West 8.1 mph - N/A   Clear
10:16 AM 64.4 °F 49.3 °F 58% 30.11 in 10.0 mi West 4.6 mph - N/A   Scattered Clouds
10:36 AM 65.7 °F 50.0 °F 57% 30.10 in 10.0 mi West 3.5 mph - N/A   Scattered Clouds
10:56 AM 66.0 °F 50.0 °F 56% 30.10 in 10.0 mi West 5.8 mph - N/A   Scattered Clouds
11:15 AM 67.8 °F 50.9 °F 55% 30.09 in 10.0 mi Calm Calm - N/A   Scattered Clouds
11:36 AM 67.3 °F 50.7 °F 55% 30.10 in 10.0 mi West 5.8 mph - N/A   Scattered Clouds
11:55 AM 68.4 °F 51.3 °F 54% 30.09 in 10.0 mi WNW 4.6 mph - N/A   Clear
12:15 PM 69.1 °F 50.2 °F 51% 30.08 in 10.0 mi WSW 5.8 mph - N/A   Clear
12:35 PM 68.4 °F 49.8 °F 51% 30.08 in 10.0 mi WSW 6.9 mph - N/A   Clear
12:55 PM 68.0 °F 50.9 °F 54% 30.08 in 10.0 mi West 4.6 mph - N/A   Clear
1:16 PM 68.7 °F 50.4 °F 52% 30.08 in 10.0 mi West 6.9 mph - N/A   Clear
1:35 PM 68.2 °F 51.1 °F 54% 30.07 in 10.0 mi Calm Calm - N/A   Scattered Clouds
1:56 PM 67.1 °F 51.1 °F 56% 30.08 in 10.0 mi WNW 3.5 mph - N/A   Scattered Clouds
2:15 PM 66.9 °F 53.1 °F 61% 30.07 in 10.0 mi NNW 3.5 mph - N/A   Clear
2:36 PM 67.3 °F 52.7 °F 59% 30.07 in 10.0 mi NW 4.6 mph - N/A   Clear
2:55 PM 65.8 °F 52.0 °F 61% 30.07 in 10.0 mi NW 5.8 mph - N/A   Clear
3:36 PM 64.0 °F 53.1 °F 67% 30.06 in 10.0 mi Calm Calm - N/A Rain Light Rain
3:56 PM 63.7 °F 53.8 °F 70% 30.05 in 10.0 mi Calm Calm - N/A   Overcast
4:16 PM 63.9 °F 54.0 °F 70% 30.05 in 10.0 mi Calm Calm - N/A   Overcast
4:35 PM 64.4 °F 53.8 °F 68% 30.06 in 10.0 mi NNW 3.5 mph - N/A   Mostly Cloudy
4:56 PM 63.7 °F 54.0 °F 71% 30.05 in 10.0 mi NW 3.5 mph - N/A   Mostly Cloudy
5:15 PM 63.5 °F 54.0 °F 71% 30.05 in 10.0 mi NNW 3.5 mph - N/A   Scattered Clouds
5:35 PM 63.1 °F 53.6 °F 71% 30.05 in 10.0 mi NW 4.6 mph - N/A   Mostly Cloudy
6:15 PM 62.6 °F 53.2 °F 71% 30.06 in 10.0 mi NW 3.5 mph - N/A   Overcast
6:35 PM 62.6 °F 53.6 °F 72% 30.06 in 10.0 mi NW 4.6 mph - N/A   Overcast
6:55 PM 61.9 °F 54.1 °F 76% 30.07 in 10.0 mi NW 4.6 mph - N/A   Overcast
7:15 PM 61.9 °F 52.9 °F 72% 30.07 in 10.0 mi NW 4.6 mph - N/A   Mostly Cloudy
7:36 PM 60.8 °F 52.7 °F 75% 30.07 in 10.0 mi NNW 3.5 mph - N/A   Scattered Clouds
7:55 PM 60.1 °F 52.2 °F 75% 30.08 in 10.0 mi NW 3.5 mph - N/A   Scattered Clouds
8:16 PM 59.0 °F 52.3 °F 79% 30.07 in 10.0 mi NW 3.5 mph - N/A   Scattered Clouds
8:36 PM 58.6 °F 52.0 °F 79% 30.08 in 10.0 mi West 3.5 mph - N/A   Scattered Clouds
8:55 PM 58.6 °F 52.0 °F 79% 30.08 in 10.0 mi West 3.5 mph - N/A   Mostly Cloudy
9:15 PM 58.3 °F 51.8 °F 79% 30.08 in 10.0 mi Calm Calm - N/A   Mostly Cloudy
9:35 PM 56.8 °F 51.8 °F 83% 30.09 in 10.0 mi Calm Calm - N/A   Clear
9:55 PM 57.0 °F 51.8 °F 83% 30.09 in 10.0 mi Calm Calm - N/A   Mostly Cloudy
10:15 PM 56.8 °F 51.8 °F 83% 30.09 in 10.0 mi Calm Calm - N/A   Mostly Cloudy
10:36 PM 57.2 °F 51.6 °F 82% 30.08 in 10.0 mi Calm Calm - N/A   Overcast
10:55 PM 57.4 °F 51.4 °F 81% 30.08 in 10.0 mi Calm Calm - N/A   Overcast
11:16 PM 57.9 °F 51.3 °F 78% 30.08 in 10.0 mi Calm Calm - N/A   Overcast
11:36 PM 58.1 °F 51.6 °F 79% 30.08 in 10.0 mi Calm Calm - N/A   Overcast
11:56 PM 58.1 °F 51.4 °F 78% 30.08 in 10.0 mi Calm Calm - N/A   Overcast